Temperature
21 21 21 20 20 20 20 20 20 20 19 19 19 19 19 19 19 19 19 19 19 19 19 19 19 19 19 19 19 19 18 19 19 18 18 18 18 18 18 18 18 18 18
21 21 21 20 20 20 20 20 19 19 19 19 19 19 19 19 19 19 19 19 19 19 19 19 19 19 19 19 19 19 19 18 18 18 18 18 18 18 18 18 18 18 18
21 21 21 20 20 20 20 19 19 19 19 19 19 19 19 19 19 19 19 19 19 19 19 19 19 18 18 19 19 19 19 18 18 18 18 18 18 18 18 18 18 18 18
21 21 20 20 20 20 20 20 19 19 19 19 19 19 19 19 19 19 19 19 19 19 19 19 18 18 18 19 19 19 19 18 18 18 18 18 18 18 18 18 18 18 18
21 21 21 20 20 20 20 20 19 19 19 19 19 19 19 19 19 19 19 19 19 19 19 19 18 18 18 19 19 19 18 18 18 18 18 18 18 18 18 18 18 18 18
21 21 21 20 20 20 20 20 20 19 19 19 19 19 19 19 19 19 19 19 19 19 19 19 19 19 18 18 18 18 18 18 18 18 18 18 18 18 18 18 18 18 18
21 21 21 21 20 20 20 20 20 20 19 19 19 19 19 19 19 19 19 19 19 19 19 19 19 19 18 18 18 18 18 18 18 18 18 18 18 18 18 18 18 18 17
22 21 21 21 21 20 20 20 20 20 20 19 19 19 19 19 19 19 19 19 19 19 19 19 18 18 18 18 18 18 18 18 18 18 18 18 18 18 18 18 18 18 17
22 21 21 21 21 21 20 20 20 20 20 20 19 19 19 19 19 19 19 19 19 19 19 19 19 18 18 18 18 18 18 18 18 18 18 18 18 18 18 18 18 17 17
22 22 21 21 21 20 20 20 20 20 20 20 19 19 19 19 19 19 19 19 19 19 19 19 19 19 19 19 18 18 18 18 18 18 18 18 18 18 18 18 17 17 17
22 22 22 21 21 20 20 20 20 20 19 19 19 19 19 19 19 19 19 19 19 19 19 19 19 19 19 19 19 19 19 19 18 18 18 18 18 18 18 18 17 17 17
22 22 22 22 21 21 20 20 20 20 19 19 19 19 19 19 19 19 19 19 19 19 19 19 19 19 19 19 19 19 19 19 19 19 18 18 18 18 18 18 18 17 17
23 22 22 22 21 21 21 21 20 20 20 19 19 19 19 19 19 19 19 19 19 19 19 19 19 19 19 19 19 19 19 19 19 19 19 18 18 18 18 18 17 17 17
23 22 22 22 21 21 21 21 20 20 20 20 19 19 19 19 19 19 19 19 19 19 19 19 19 19 19 19 19 19 19 19 19 19 19 18 18 18 18 18 18 18 17
22 22 22 21 21 21 21 21 21 20 20 20 20 20 19 19 19 19 19 19 19 19 19 19 19 19 19 19 19 19 19 19 19 19 19 19 18 18 18 18 18 18 18
22 22 22 21 21 21 21 21 21 20 20 20 20 20 19 19 19 19 19 19 19 19 19 19 19 19 19 19 19 19 19 19 19 19 19 18 18 18 18 18 18 18 18
22 22 21 21 21 21 21 21 21 21 20 20 20 20 20 19 19 19 19 19 19 19 19 19 19 19 19 19 19 19 19 19 19 19 18 18 18 18 18 18 18 18 18
22 21 21 21 21 21 20 21 20 21 20 20 20 20 20 19 19 19 19 19 19 19 19 19 19 19 19 19 19 19 19 19 19 19 18 18 18 18 18 18 18 18 18
22 21 21 21 21 21 20 20 20 20 20 20 20 20 19 19 19 19 19 19 19 19 19 19 19 19 19 19 19 19 19 19 19 19 19 18 18 18 18 18 18 18 18
22 21 21 21 20 20 20 20 20 20 20 20 20 20 19 19 19 19 19 19 19 19 19 19 19 19 19 19 19 19 19 19 19 19 19 19 19 18 18 18 18 18 18
22 21 21 21 20 20 20 20 20 20 20 20 20 20 19 19 19 19 19 19 19 19 19 19 19 19 19 19 19 19 19 19 19 19 19 19 19 19 18 18 18 18 18
22 21 21 21 21 20 20 20 20 20 20 20 20 20 19 19 19 19 19 19 19 19 19 19 19 19 19 19 19 19 19 19 19 19 19 19 19 19 19 18 18 18 18
22 21 21 21 21 21 20 20 20 20 20 20 20 20 19 19 19 19 19 19 19 19 19 19 19 19 19 19 19 19 19 19 19 19 19 19 19 19 19 19 18 18 18
22 22 21 21 21 21 20 20 20 20 20 20 20 20 19 19 19 19 19 19 19 19 19 19 19 19 19 19 19 19 20 20 19 19 19 19 19 19 19 19 18 18 18
23 22 21 21 21 21 20 20 20 20 20 20 20 20 19 19 19 19 19 19 19 19 19 19 19 19 19 19 19 19 19 19 19 19 19 19 19 19 19 19 18 18 18
23 22 22 21 21 21 20 20 20 20 20 20 20 19 19 19 19 19 19 19 19 19 19 19 19 19 19 19 19 19 19 19 19 19 19 19 19 19 19 19 18 18 18
Wind_Speed
9 10 13 13 12 11 10 10 10 9 9 8 8 8 9 9 9 9 10 11 11 12 13 14 13 13 13 13 13 14 15 15 15 15 15 14 13 12 12 12 11 10 11
11 11 13 13 12 12 11 10 10 10 10 9 9 9 9 9 9 10 11 10 10 11 12 13 13 13 13 13 13 14 14 14 15 15 15 13 12 12 11 9 9 9 11
11 11 12 13 12 12 11 10 10 10 10 10 11 10 11 10 10 10 11 10 10 12 13 13 13 13 12 12 12 12 13 14 14 14 14 11 11 11 11 10 10 10 10
12 11 12 12 12 11 11 11 10 10 10 11 11 11 11 11 11 11 11 10 11 13 14 14 14 13 12 12 12 12 12 12 12 12 10 10 10 11 11 10 10 10 9
13 13 12 13 12 11 11 11 11 11 11 11 11 11 11 12 11 11 11 11 11 14 15 14 14 14 12 12 12 11 10 10 10 9 9 10 9 11 11 10 9 9 8
13 13 13 13 12 11 11 11 11 11 11 11 11 11 11 12 12 12 12 12 13 15 15 14 13 13 12 11 11 10 9 8 7 8 10 10 9 11 11 10 10 9 8
13 12 12 13 12 11 11 11 10 11 11 11 11 11 11 12 12 13 13 13 15 15 15 14 13 13 11 10 10 9 8 6 4 7 11 10 10 11 10 10 9 9 8
13 12 12 12 12 11 11 11 10 10 10 10 10 11 11 12 12 12 13 13 15 15 14 13 13 12 10 9 8 8 6 5 6 9 11 10 11 11 10 9 9 8 8
12 12 11 11 10 10 10 10 10 9 9 9 10 11 11 12 13 12 13 14 14 14 14 13 12 11 9 7 6 5 5 4 3 8 10 10 11 10 9 8 8 8 8
9 10 10 10 10 10 9 10 9 9 9 9 9 11 11 11 12 13 13 14 14 13 13 13 11 10 9 7 6 5 5 3 3 9 10 10 11 10 9 8 8 8 8
7 7 8 9 9 9 9 10 9 9 8 8 8 9 8 7 10 10 13 14 13 12 12 11 10 9 8 7 7 6 5 4 6 9 10 12 12 10 9 8 8 8 8
6 7 7 8 6 6 7 8 7 7 8 7 7 7 6 6 7 9 13 13 12 11 11 10 9 8 7 6 7 7 4 4 7 9 11 14 12 10 8 8 8 8 8
6 6 7 7 6 6 5 4 4 5 6 7 7 7 7 6 6 7 6 8 8 9 7 8 8 5 5 4 4 4 3 3 5 8 11 14 12 10 8 7 7 7 7
7 7 7 8 7 6 5 4 4 4 4 5 6 6 5 3 4 4 3 4 4 4 4 5 3 3 3 3 3 2 2 3 6 8 11 13 12 10 9 8 7 7 7
7 7 8 8 7 5 4 3 4 4 5 6 5 5 5 4 3 3 2 3 3 3 3 2 2 2 2 1 1 2 2 3 6 8 9 12 11 10 9 8 8 7 7
7 6 6 7 6 5 4 3 3 4 4 5 5 5 5 5 3 2 2 2 2 3 3 2 2 2 1 1 1 1 2 3 5 7 9 10 11 11 10 9 8 8 7
8 6 5 7 6 5 4 2 3 3 5 4 5 6 5 5 3 2 2 2 2 3 3 2 2 2 2 2 2 1 1 2 3 4 7 8 9 10 11 10 9 9 8
8 6 4 6 7 5 4 2 2 4 5 4 5 5 5 4 3 1 2 2 1 2 2 2 1 1 1 1 1 1 2 2 3 4 5 7 8 8 10 11 11 10 10
8 6 5 6 6 5 4 2 2 3 3 3 4 4 4 4 3 1 2 1 0 1 1 2 2 1 0 0 1 2 2 2 3 4 4 5 7 8 9 11 12 12 11
9 7 6 6 5 4 3 2 1 3 3 2 3 3 3 2 2 1 2 1 1 2 1 2 1 0 1 1 1 1 1 2 3 3 3 3 4 6 8 8 9 9 12
9 8 6 5 5 3 2 2 2 2 2 2 2 3 3 2 2 2 2 2 1 1 1 0 0 1 1 0 1 1 0 2 3 3 2 2 2 3 5 7 6 6 6
10 8 7 6 5 3 2 1 1 1 1 2 2 3 3 1 1 1 1 1 1 1 1 1 1 1 1 1 1 0 0 1 1 1 3 2 2 2 3 4 5 5 6
10 9 8 7 6 5 4 2 1 2 1 1 2 2 2 1 1 1 1 1 1 1 0 1 1 1 1 0 0 1 1 0 1 0 1 2 2 1 1 2 3 5 5
10 9 8 7 5 4 4 3 3 2 2 2 2 2 2 1 1 1 1 1 1 1 1 1 1 1 1 1 0 1 1 2 1 0 0 1 1 1 1 0 1 3 4
10 9 9 8 5 4 4 3 2 2 2 1 2 2 1 1 1 1 1 1 1 2 1 2 2 2 1 1 1 0 1 2 2 2 1 1 1 1 2 1 1 1 3
9 9 9 8 6 4 3 3 2 2 1 1 2 1 1 1 1 2 2 1 1 1 0 0 1 1 2 2 2 1 1 0 1 1 2 2 1 1 1 2 2 2 2
Wind_Direction
71 73 75 72 67 63 62 63 65 65 64 67 78 81 84 93 99 99 103 111 120 127 131 133 133 132 131 132 132 134 134 135 135 133 128 125 123 122 124 126 125 122 126
86 81 76 72 64 61 60 63 65 65 63 66 77 83 86 90 100 102 103 107 116 127 130 130 129 128 129 129 131 134 137 139 137 136 133 128 125 122 123 127 125 127 135
88 86 80 71 65 61 61 63 64 65 65 68 76 82 87 91 95 106 106 106 113 128 129 126 124 123 128 131 132 136 139 140 142 143 141 132 129 125 125 128 135 139 139
91 86 80 77 67 64 65 65 67 70 68 71 78 83 87 91 94 101 109 109 113 124 128 123 122 121 123 130 135 138 140 144 149 153 143 131 132 132 134 137 142 143 145
90 90 88 82 74 71 70 69 69 72 71 75 80 84 87 89 94 103 107 110 117 124 126 125 126 125 126 130 134 137 142 149 152 152 128 124 125 135 137 140 144 144 146
97 96 96 90 83 78 74 72 72 72 75 79 85 86 88 89 93 100 103 103 112 120 121 120 122 127 126 129 132 139 148 153 159 146 127 122 123 134 138 142 143 145 147
96 100 104 98 91 86 82 78 75 76 77 81 86 88 92 93 96 99 100 102 111 116 115 115 118 117 118 121 129 141 150 156 156 126 116 115 123 135 141 144 144 145 145
106 109 111 106 97 93 89 84 82 81 81 84 90 91 91 93 95 101 105 108 114 114 118 116 114 112 113 120 130 143 152 148 125 113 111 116 130 137 141 143 142 143 145
108 112 120 120 112 104 98 94 94 91 88 92 99 99 97 95 96 103 109 108 112 114 115 115 118 120 121 122 128 144 162 163 119 120 119 123 136 139 141 142 141 142 144
105 111 118 122 123 121 114 106 105 103 100 102 106 108 108 107 106 112 115 113 115 117 119 123 128 133 138 142 146 162 186 181 150 121 117 128 139 141 139 140 142 145 147
92 100 104 110 117 121 118 118 121 116 112 111 111 116 113 107 105 115 116 120 125 126 128 132 139 147 153 162 172 186 198 188 144 117 119 132 138 139 140 142 146 150 152
95 97 99 94 100 105 105 119 128 120 118 116 103 106 111 103 107 111 119 126 132 135 138 149 158 165 174 178 191 197 209 180 131 118 126 136 138 142 145 147 148 155 160
107 98 96 93 86 85 89 104 100 102 111 112 111 113 112 111 116 117 127 134 143 148 153 157 170 181 170 168 179 190 193 145 120 120 136 144 146 148 149 152 156 166 175
96 90 87 86 79 65 66 70 95 94 97 96 95 88 96 101 103 111 119 132 143 140 148 157 159 161 152 158 173 174 140 113 113 122 143 152 155 159 163 168 174 180 185
97 89 82 78 77 73 58 42 77 84 84 92 94 89 90 90 86 94 101 115 121 124 127 116 121 123 121 147 126 121 112 114 117 125 141 157 162 167 171 179 184 188 193
108 94 91 93 93 92 83 59 67 87 99 97 97 90 90 100 91 95 98 93 104 107 111 113 114 117 102 85 64 70 95 103 119 131 143 158 166 172 180 185 187 193 200
113 104 97 104 101 98 100 89 90 99 100 91 97 95 84 92 92 94 98 99 107 122 121 122 140 148 144 141 126 112 109 123 131 134 144 156 170 181 185 188 192 201 209
116 112 115 109 103 100 96 85 65 78 89 95 108 106 92 92 96 98 89 90 113 125 134 121 87 73 90 114 153 173 147 158 172 162 156 163 171 178 189 194 198 205 215
117 116 108 99 109 117 118 110 81 79 77 87 101 101 100 98 88 83 88 77 140 82 59 82 84 54 52 113 185 182 175 177 174 185 174 179 174 168 175 191 199 206 214
122 122 119 114 112 116 121 117 84 81 86 84 85 92 94 84 85 41 98 60 49 59 43 54 71 162 237 250 208 148 188 176 175 174 184 173 161 166 172 176 189 207 214
129 130 132 127 122 129 124 129 127 126 128 123 115 97 95 71 55 41 48 54 56 78 64 47 295 238 208 102 80 13 329 208 163 161 176 174 167 162 161 169 181 184 187
139 140 135 134 135 142 122 121 128 122 120 113 94 100 102 88 48 98 55 43 52 88 39 273 239 264 223 148 155 105 31 355 352 180 162 177 174 170 169 169 166 165 169
144 147 151 148 148 158 150 149 123 120 96 99 118 120 110 107 80 40 54 45 332 71 291 237 298 231 270 215 139 168 165 160 275 2 140 150 140 160 188 167 163 164 171
151 151 145 144 152 155 160 164 163 155 144 142 127 118 118 120 112 102 81 75 18 39 343 301 15 301 271 268 230 188 186 163 178 276 352 119 161 168 201 206 145 146 158
153 153 148 145 148 149 168 170 171 150 128 135 124 114 132 155 162 108 84 67 68 73 27 354 16 350 355 334 301 270 233 208 212 197 223 249 221 185 177 192 181 160 163
146 147 146 143 145 151 164 155 154 152 149 129 114 138 188 158 159 139 136 99 74 104 109 17 357 32 21 356 343 339 320 272 223 198 215 236 241 249 196 183 194 164 148
Height
1489 1487 1486 1484 1483 1482 1481 1480 1479 1478 1476 1475 1475 1475 1476 1477 1479 1480 1481 1483 1485 1487 1490 1493 1496 1500 1503 1506 1508 1511 1514 1517 1519 1522 1524 1527 1529 1531 1533 1534 1536 1537 1538
1490 1489 1488 1486 1485 1484 1483 1482 1481 1479 1478 1476 1475 1476 1477 1479 1480 1481 1483 1484 1485 1488 1491 1494 1497 1501 1504 1506 1509 1511 1514 1517 1520 1522 1525 1527 1529 1531 1533 1535 1536 1537 1539
1491 1490 1489 1488 1487 1485 1484 1484 1483 1481 1479 1478 1477 1477 1479 1481 1482 1483 1484 1485 1486 1488 1492 1495 1499 1502 1505 1507 1509 1512 1515 1518 1520 1523 1526 1528 1529 1531 1533 1535 1536 1538 1539
1493 1492 1491 1490 1489 1487 1486 1486 1484 1483 1482 1481 1480 1481 1482 1483 1483 1484 1485 1486 1486 1489 1493 1497 1500 1503 1505 1508 1509 1512 1515 1518 1521 1524 1526 1528 1530 1531 1533 1535 1536 1538 1539
1494 1494 1493 1492 1491 1490 1488 1487 1486 1485 1484 1483 1483 1484 1484 1485 1485 1486 1486 1486 1487 1490 1495 1498 1501 1504 1507 1508 1510 1513 1516 1519 1522 1525 1527 1529 1530 1532 1533 1535 1536 1538 1539
1496 1495 1495 1494 1493 1492 1491 1489 1488 1487 1486 1486 1485 1486 1487 1487 1488 1487 1487 1485 1485 1491 1497 1500 1503 1505 1507 1510 1511 1514 1517 1521 1523 1526 1528 1529 1530 1532 1533 1535 1537 1538 1539
1498 1497 1496 1496 1495 1494 1492 1491 1490 1489 1488 1488 1488 1488 1489 1489 1489 1489 1490 1489 1490 1495 1500 1503 1505 1508 1510 1512 1514 1516 1519 1522 1525 1527 1528 1530 1531 1532 1533 1535 1537 1538 1540
1500 1499 1498 1498 1497 1496 1495 1494 1492 1491 1491 1491 1491 1491 1492 1492 1491 1491 1492 1494 1496 1500 1503 1506 1508 1511 1513 1515 1516 1519 1521 1523 1526 1528 1529 1530 1531 1532 1534 1536 1537 1539 1540
1502 1501 1500 1500 1499 1498 1498 1496 1495 1494 1494 1493 1494 1494 1495 1494 1492 1493 1495 1498 1501 1504 1506 1509 1511 1514 1516 1517 1519 1521 1523 1525 1527 1529 1529 1531 1532 1533 1534 1536 1537 1539 1540
1504 1503 1503 1503 1502 1501 1500 1500 1499 1498 1497 1497 1497 1498 1498 1498 1497 1497 1500 1502 1505 1508 1510 1512 1514 1516 1518 1520 1522 1524 1525 1527 1528 1529 1530 1531 1532 1533 1534 1536 1537 1539 1540
1506 1506 1506 1506 1505 1505 1504 1503 1502 1501 1501 1501 1502 1502 1503 1503 1503 1503 1505 1508 1510 1512 1514 1515 1517 1519 1521 1523 1525 1526 1527 1528 1530 1530 1531 1532 1533 1534 1535 1536 1537 1539 1540
1507 1508 1508 1508 1508 1508 1507 1506 1506 1506 1506 1506 1506 1507 1507 1508 1509 1510 1511 1512 1514 1515 1517 1519 1520 1522 1523 1525 1526 1528 1528 1530 1531 1531 1532 1532 1533 1534 1535 1536 1537 1539 1540
1509 1509 1510 1510 1510 1510 1510 1510 1510 1510 1510 1510 1510 1511 1511 1512 1512 1513 1514 1515 1517 1518 1519 1521 1523 1524 1525 1526 1527 1528 1530 1531 1531 1531 1532 1533 1534 1535 1535 1536 1537 1539 1539
1510 1511 1511 1512 1512 1512 1512 1512 1513 1513 1513 1514 1514 1514 1515 1515 1516 1516 1517 1518 1519 1521 1522 1523 1524 1526 1527 1528 1529 1530 1530 1531 1531 1532 1532 1533 1534 1535 1535 1536 1537 1538 1539
1511 1512 1513 1513 1513 1513 1513 1514 1515 1515 1516 1516 1517 1517 1517 1518 1518 1519 1519 1520 1521 1523 1524 1525 1526 1527 1528 1529 1530 1531 1531 1532 1532 1532 1532 1533 1534 1535 1535 1536 1537 1538 1539
1512 1513 1514 1514 1514 1515 1515 1516 1516 1517 1518 1519 1519 1519 1520 1520 1520 1520 1521 1522 1523 1524 1525 1526 1527 1528 1529 1530 1530 1531 1531 1532 1532 1532 1533 1533 1534 1535 1535 1536 1536 1537 1538
1513 1514 1514 1515 1516 1516 1517 1517 1519 1519 1520 1520 1520 1521 1521 1522 1522 1522 1523 1524 1524 1525 1526 1526 1527 1528 1529 1530 1530 1531 1531 1532 1533 1533 1533 1533 1534 1534 1535 1535 1536 1537 1537
1513 1514 1515 1516 1516 1517 1518 1519 1520 1521 1521 1522 1522 1522 1523 1523 1523 1524 1524 1525 1526 1526 1526 1527 1528 1528 1529 1530 1530 1531 1531 1531 1532 1532 1533 1533 1533 1534 1534 1535 1536 1536 1536
1513 1515 1516 1517 1517 1518 1519 1520 1521 1522 1523 1524 1524 1524 1524 1524 1524 1525 1525 1525 1526 1526 1527 1527 1527 1528 1529 1530 1530 1531 1531 1531 1531 1532 1533 1533 1533 1534 1534 1534 1535 1535 1535
1513 1515 1516 1517 1518 1519 1520 1521 1522 1523 1524 1524 1525 1525 1525 1525 1525 1525 1526 1525 1526 1526 1526 1527 1527 1528 1529 1529 1530 1530 1530 1531 1531 1532 1533 1533 1533 1533 1533 1534 1534 1534 1533
1514 1515 1516 1517 1518 1520 1521 1522 1523 1524 1525 1525 1525 1525 1525 1525 1526 1526 1526 1526 1526 1526 1526 1527 1527 1528 1528 1529 1529 1530 1530 1530 1531 1531 1532 1532 1533 1533 1533 1533 1533 1532 1532
1514 1515 1516 1517 1518 1520 1521 1522 1523 1524 1525 1526 1526 1526 1526 1526 1526 1526 1525 1526 1526 1526 1526 1527 1527 1527 1528 1529 1529 1529 1530 1531 1530 1531 1531 1532 1532 1532 1532 1532 1532 1532 1531
1513 1514 1516 1517 1518 1520 1521 1522 1524 1525 1525 1526 1526 1526 1526 1526 1526 1525 1526 1526 1526 1526 1526 1526 1527 1527 1527 1528 1528 1529 1529 1529 1530 1530 1530 1531 1531 1531 1531 1531 1531 1530 1530
1512 1514 1516 1517 1518 1520 1521 1522 1523 1525 1525 1526 1526 1526 1526 1526 1526 1526 1526 1526 1526 1526 1525 1526 1526 1526 1526 1527 1527 1528 1529 1529 1529 1529 1530 1530 1530 1530 1530 1530 1530 1529 1529
1512 1514 1515 1516 1518 1519 1520 1522 1523 1525 1525 1526 1526 1526 1526 1526 1526 1526 1526 1525 1525 1525 1525 1525 1525 1525 1525 1525 1526 1527 1527 1528 1528 1528 1528 1529 1529 1529 1529 1528 1528 1527 1527
1510 1512 1514 1515 1517 1518 1520 1521 1522 1524 1525 1525 1526 1526 1526 1526 1526 1525 1525 1525 1525 1525 1525 1525 1524 1524 1525 1525 1525 1526 1527 1527 1527 1527 1527 1527 1527 1528 1527 1526 1526 1525 1525